| time (UTC) | temp F | wind direction | speed knots | gust knots | rain 1hr in | rain 24hr in | rain mn in | humidity % | barometer mb |
| 20260507060535 | 61 | 202 | 0.9 | 5.2 | 0.00 | 0.00 | 0.00 | 90 | 1019.0 |
| 20260507060035 | 60 | 287 | 1.7 | 5.2 | 0.00 | 0.00 | 0.00 | 91 | 1018.9 |
| 20260507055535 | 61 | 336 | 0.9 | 2.6 | 0.00 | 0.00 | 0.00 | 91 | 1018.7 |
| 20260507055035 | 61 | 261 | 0.0 | 6.1 | 0.00 | 0.00 | 0.00 | 91 | 1018.8 |
| 20260507054535 | 61 | 297 | 0.0 | 6.1 | 0.00 | 0.00 | 0.00 | 91 | 1018.7 |
| 20260507054040 | 61 | 323 | 0.9 | 1.7 | 0.00 | 0.00 | 0.00 | 91 | 1018.8 |
| 20260507054036 | 61 | 247 | 0.0 | 1.7 | 0.00 | 0.00 | 0.00 | 91 | 1018.8 |
| 20260507053306 | 61 | 289 | 1.7 | 2.6 | 0.00 | 0.00 | 0.00 | 91 | 1018.7 |
| 20260507052540 | 61 | 274 | 0.0 | 2.6 | 0.00 | 0.00 | 0.00 | 90 | 1018.8 |
| 20260507052536 | 61 | 234 | 0.0 | 2.6 | 0.00 | 0.00 | 0.00 | 90 | 1018.7 |
| 20260507051536 | 61 | 238 | 0.0 | 3.5 | 0.00 | 0.00 | 0.00 | 89 | 1018.9 |
| 20260507051035 | 61 | 296 | 1.7 | 3.5 | 0.00 | 0.00 | 0.00 | 89 | 1018.6 |
| 20260507050805 | 62 | 294 | 0.0 | 2.6 | 0.00 | 0.00 | 0.00 | 88 | 1018.7 |
| 20260507050033 | 62 | 277 | 0.9 | 3.5 | 0.00 | 0.00 | 0.00 | 88 | 1018.8 |
| 20260507045804 | 62 | 250 | 0.0 | 3.5 | 0.00 | 0.00 | 0.00 | 88 | 1018.6 |
| 20260507045034 | 62 | 261 | 0.9 | 3.5 | 0.00 | 0.00 | 0.00 | 87 | 1018.7 |
| 20260507044533 | 62 | 235 | 0.9 | 3.5 | 0.00 | 0.00 | 0.00 | 87 | 1018.7 |
| 20260507044035 | 62 | 331 | 1.7 | 2.6 | 0.00 | 0.00 | 0.00 | 87 | 1018.5 |
| 20260507043804 | 62 | 235 | 0.9 | 3.5 | 0.00 | 0.00 | 0.00 | 86 | 1018.5 |
| 20260507043041 | 62 | 311 | 0.9 | 5.2 | 0.00 | 0.00 | 0.00 | 86 | 1018.6 |
| 20260507042533 | 62 | 290 | 0.9 | 5.2 | 0.00 | 0.00 | 0.00 | 86 | 1018.4 |
| 20260507042022 | 62 | 263 | 1.7 | 3.5 | 0.00 | 0.00 | 0.00 | 87 | 1018.5 |
| 20260507041522 | 62 | 257 | 0.9 | 3.5 | 0.00 | 0.00 | 0.00 | 87 | 1018.5 |
| 20260507041021 | 62 | 212 | 0.9 | 3.5 | 0.00 | 0.00 | 0.00 | 87 | 1018.6 |
| 20260507040509 | 62 | 257 | 0.0 | 5.2 | 0.00 | 0.00 | 0.00 | 86 | 1018.3 |
| 20260507040009 | 62 | 301 | 1.7 | 2.6 | 0.00 | 0.00 | 0.00 | 86 | 1018.5 |
| 20260507035510 | 63 | 259 | 1.7 | 3.5 | 0.00 | 0.00 | 0.00 | 86 | 1018.3 |
| 20260507034946 | 63 | 213 | 0.0 | 5.2 | 0.00 | 0.00 | 0.00 | 85 | 1018.3 |
| 20260507034717 | 63 | 226 | 1.7 | 5.2 | 0.00 | 0.00 | 0.00 | 84 | 1018.3 |
| 20260507033947 | 63 | 271 | 0.9 | 6.1 | 0.00 | 0.00 | 0.00 | 82 | 1018.2 |
| 20260507033447 | 64 | 205 | 0.0 | 6.1 | 0.00 | 0.00 | 0.00 | 81 | 1018.2 |
| 20260507032946 | 64 | 288 | 3.5 | 6.1 | 0.00 | 0.00 | 0.00 | 80 | 1018.1 |
| 20260507032446 | 64 | 278 | 1.7 | 7.0 | 0.00 | 0.00 | 0.00 | 79 | 1018.1 |
| 20260507031946 | 64 | 306 | 1.7 | 7.0 | 0.00 | 0.00 | 0.00 | 79 | 1018.1 |
| 20260507031447 | 64 | 302 | 3.5 | 5.2 | 0.00 | 0.00 | 0.00 | 78 | 1017.9 |
| 20260507030946 | 64 | 204 | 0.0 | 5.2 | 0.00 | 0.00 | 0.00 | 78 | 1017.9 |
| 20260507030446 | 64 | 202 | 0.0 | 3.5 | 0.00 | 0.00 | 0.00 | 79 | 1017.8 |
| 20260507025934 | 64 | 294 | 2.6 | 3.5 | 0.00 | 0.00 | 0.00 | 80 | 1017.8 |
| 20260507025434 | 64 | 267 | 1.7 | 3.5 | 0.00 | 0.00 | 0.00 | 79 | 1017.8 |
| 20260507024934 | 65 | 229 | 0.9 | 7.8 | 0.00 | 0.00 | 0.00 | 78 | 1017.6 |
| 20260507024706 | 65 | 306 | 0.9 | 7.8 | 0.00 | 0.00 | 0.00 | 78 | 1017.8 |
| 20260507023934 | 65 | 240 | 1.7 | 6.1 | 0.00 | 0.00 | 0.00 | 77 | 1017.7 |
| 20260507023705 | 65 | 329 | 2.6 | 6.1 | 0.00 | 0.00 | 0.00 | 76 | 1017.5 |
| 20260507022934 | 66 | 280 | 1.7 | 6.1 | 0.00 | 0.00 | 0.00 | 75 | 1017.3 |
| 20260507022422 | 66 | 317 | 1.7 | 7.0 | 0.00 | 0.00 | 0.00 | 74 | 1017.1 |
| 20260507021922 | 66 | 284 | 1.7 | 7.0 | 0.00 | 0.00 | 0.00 | 74 | 1017.6 |
| 20260507021423 | 67 | 257 | 1.7 | 5.2 | 0.00 | 0.00 | 0.00 | 73 | 1017.5 |
| 20260507020911 | 67 | 329 | 1.7 | 7.0 | 0.00 | 0.00 | 0.00 | 73 | 1017.3 |
| 20260507020411 | 67 | 314 | 1.7 | 7.0 | 0.00 | 0.00 | 0.00 | 72 | 1017.3 |
| 20260507015910 | 68 | 284 | 0.9 | 6.1 | 0.00 | 0.00 | 0.00 | 70 | 1017.3 |
| 20260507015358 | 68 | 308 | 0.9 | 6.1 | 0.00 | 0.00 | 0.00 | 71 | 1017.1 |
| 20260507014858 | 69 | 219 | 3.5 | 6.1 | 0.00 | 0.00 | 0.00 | 69 | 1017.3 |
| 20260507014358 | 70 | 299 | 0.9 | 5.2 | 0.00 | 0.00 | 0.00 | 70 | 1017.3 |
| 20260507013847 | 70 | 22 | 0.9 | 7.0 | 0.00 | 0.00 | 0.00 | 69 | 1017.2 |
| 20260507013618 | 70 | 306 | 3.5 | 7.0 | 0.00 | 0.00 | 0.00 | 68 | 1017.0 |
| 20260507012846 | 69 | 295 | 1.7 | 7.0 | 0.00 | 0.00 | 0.00 | 70 | 1016.9 |
| 20260507012346 | 70 | 238 | 1.7 | 7.0 | 0.00 | 0.00 | 0.00 | 70 | 1017.0 |
| 20260507011846 | 70 | 200 | 1.7 | 7.8 | 0.00 | 0.00 | 0.00 | 69 | 1017.0 |
| 20260507011346 | 70 | 197 | 1.7 | 7.8 | 0.00 | 0.00 | 0.00 | 68 | 1016.8 |
| 20260507011118 | 71 | 261 | 2.6 | 7.8 | 0.00 | 0.00 | 0.00 | 69 | 1017.0 |
| 20260507010335 | 71 | 322 | 0.9 | 5.2 | 0.00 | 0.00 | 0.00 | 68 | 1016.9 |
| 20260507005835 | 71 | 213 | 0.9 | 7.0 | 0.00 | 0.00 | 0.00 | 67 | 1016.8 |
| 20260507005334 | 71 | 210 | 2.6 | 7.0 | 0.00 | 0.00 | 0.00 | 67 | 1016.7 |
| 20260507004834 | 72 | 259 | 0.0 | 5.2 | 0.00 | 0.00 | 0.00 | 67 | 1016.6 |
| 20260507004335 | 72 | 226 | 0.0 | 9.6 | 0.00 | 0.00 | 0.00 | 66 | 1016.8 |
| 20260507004105 | 72 | 53 | 2.6 | 9.6 | 0.00 | 0.00 | 0.00 | 67 | 1016.6 |
| 20260507003335 | 71 | 347 | 3.5 | 9.6 | 0.00 | 0.00 | 0.00 | 66 | 1017.0 |
| 20260507002822 | 72 | 288 | 1.7 | 11.3 | 0.00 | 0.00 | 0.00 | 64 | 1017.0 |
| 20260507002323 | 72 | 290 | 1.7 | 11.3 | 0.00 | 0.00 | 0.00 | 64 | 1016.7 |
| 20260507001823 | 73 | 280 | 3.5 | 7.8 | 0.00 | 0.00 | 0.00 | 62 | 1016.5 |
| 20260507001310 | 73 | 328 | 5.2 | 7.0 | 0.00 | 0.00 | 0.00 | 61 | 1016.9 |
| 20260507000810 | 74 | 206 | 0.9 | 8.7 | 0.00 | 0.00 | 0.00 | 62 | 1016.6 |
| 20260507000310 | 73 | 311 | 4.3 | 8.7 | 0.00 | 0.00 | 0.00 | 62 | 1016.7 |
| 20260506235759 | 74 | 217 | 0.0 | 7.8 | 0.00 | 0.00 | 0.00 | 61 | 1016.6 |
| 20260506235259 | 74 | 301 | 0.9 | 9.6 | 0.00 | 0.00 | 0.00 | 61 | 1016.7 |
| 20260506235029 | 74 | 182 | 5.2 | 9.6 | 0.00 | 0.00 | 0.00 | 62 | 1016.8 |
| 20260506234246 | 74 | 315 | 3.5 | 11.3 | 0.00 | 0.00 | 0.00 | 61 | 1016.6 |
| 20260506233746 | 75 | 270 | 3.5 | 11.3 | 0.00 | 0.00 | 0.00 | 61 | 1016.6 |
| 20260506233246 | 75 | 230 | 2.6 | 7.8 | 0.00 | 0.00 | 0.00 | 61 | 1016.5 |
| 20260506232747 | 74 | 211 | 3.5 | 7.8 | 0.00 | 0.00 | 0.00 | 62 | 1016.8 |
| 20260506232247 | 75 | 254 | 2.6 | 7.8 | 0.00 | 0.00 | 0.00 | 61 | 1016.6 |
| 20260506231746 | 75 | 246 | 1.7 | 7.8 | 0.00 | 0.00 | 0.00 | 60 | 1016.7 |
| 20260506231246 | 76 | 288 | 4.3 | 7.0 | 0.00 | 0.00 | 0.00 | 60 | 1016.6 |
| 20260506230746 | 76 | 287 | 1.7 | 7.0 | 0.00 | 0.00 | 0.00 | 60 | 1016.8 |
| 20260506230246 | 76 | 251 | 1.7 | 12.2 | 0.00 | 0.00 | 0.00 | 58 | 1016.9 |
| 20260506230017 | 74 | 215 | 2.6 | 12.2 | 0.00 | 0.00 | 0.00 | 61 | 1016.7 |
| 20260506225247 | 74 | 226 | 6.1 | 11.3 | 0.00 | 0.00 | 0.00 | 61 | 1016.7 |
| 20260506224747 | 74 | 217 | 5.2 | 8.7 | 0.00 | 0.00 | 0.00 | 60 | 1016.9 |
| 20260506224246 | 75 | 225 | 2.6 | 7.8 | 0.00 | 0.00 | 0.00 | 58 | 1017.0 |
| 20260506223746 | 76 | 247 | 5.2 | 7.8 | 0.00 | 0.00 | 0.00 | 57 | 1017.1 |
| 20260506223246 | 76 | 247 | 1.7 | 7.8 | 0.00 | 0.00 | 0.00 | 56 | 1017.2 |
| 20260506222746 | 76 | 216 | 3.5 | 8.7 | 0.00 | 0.00 | 0.00 | 56 | 1017.2 |
| 20260506222250 | 73 | 241 | 4.3 | 8.7 | 0.00 | 0.00 | 0.00 | 63 | 1017.2 |
| 20260506222246 | 74 | 241 | 0.0 | 8.7 | 0.00 | 0.00 | 0.00 | 58 | 1017.3 |
| 20260506221246 | 73 | 268 | 5.2 | 11.3 | 0.00 | 0.00 | 0.00 | 64 | 1017.3 |
| 20260506220747 | 72 | 187 | 3.5 | 11.3 | 0.00 | 0.00 | 0.00 | 63 | 1017.3 |
| 20260506220247 | 72 | 251 | 4.3 | 11.3 | 0.00 | 0.00 | 0.00 | 61 | 1017.6 |
| 20260506215746 | 72 | 236 | 7.8 | 11.3 | 0.00 | 0.00 | 0.00 | 61 | 1017.6 |
| 20260506215247 | 73 | 215 | 7.0 | 11.3 | 0.00 | 0.00 | 0.00 | 61 | 1017.6 |
| 20260506215018 | 74 | 206 | 6.1 | 11.3 | 0.00 | 0.00 | 0.00 | 63 | 1017.8 |
| 20260506214246 | 74 | 206 | 0.0 | 7.8 | 0.00 | 0.00 | 0.00 | 62 | 1017.8 |
| 20260506213746 | 75 | 230 | 3.5 | 6.1 | 0.00 | 0.00 | 0.00 | 59 | 1018.0 |
| 20260506213246 | 76 | 277 | 1.7 | 7.8 | 0.00 | 0.00 | 0.00 | 58 | 1018.1 |
| 20260506212746 | 73 | 223 | 0.9 | 7.8 | 0.00 | 0.00 | 0.00 | 63 | 1018.0 |
| 20260506212246 | 73 | 212 | 1.7 | 7.8 | 0.00 | 0.00 | 0.00 | 63 | 1018.1 |
| 20260506211747 | 73 | 225 | 1.7 | 7.8 | 0.00 | 0.00 | 0.00 | 63 | 1018.1 |
| 20260506211247 | 72 | 205 | 0.0 | 7.0 | 0.00 | 0.00 | 0.00 | 65 | 1018.2 |
| 20260506210747 | 73 | 217 | 1.7 | 8.7 | 0.00 | 0.00 | 0.00 | 64 | 1018.3 |
| 20260506210247 | 71 | 243 | 3.5 | 8.7 | 0.00 | 0.00 | 0.00 | 65 | 1018.3 |
| 20260506205746 | 72 | 207 | 3.5 | 9.6 | 0.00 | 0.00 | 0.00 | 64 | 1018.4 |
| 20260506205246 | 71 | 235 | 2.6 | 9.6 | 0.00 | 0.00 | 0.00 | 65 | 1018.4 |
| 20260506204747 | 70 | 246 | 6.1 | 9.6 | 0.00 | 0.00 | 0.00 | 66 | 1018.6 |
| 20260506204246 | 70 | 234 | 5.2 | 9.6 | 0.00 | 0.00 | 0.00 | 66 | 1018.4 |
| 20260506203746 | 71 | 258 | 3.5 | 9.6 | 0.00 | 0.00 | 0.00 | 66 | 1018.6 |
| 20260506203246 | 71 | 187 | 2.6 | 9.6 | 0.00 | 0.00 | 0.00 | 66 | 1018.6 |
| 20260506202746 | 70 | 240 | 7.0 | 13.9 | 0.00 | 0.00 | 0.00 | 67 | 1018.7 |
| 20260506202246 | 71 | 233 | 3.5 | 13.9 | 0.00 | 0.00 | 0.00 | 67 | 1018.6 |
| 20260506201746 | 71 | 265 | 5.2 | 12.2 | 0.00 | 0.00 | 0.00 | 67 | 1018.8 |
| 20260506201246 | 72 | 268 | 5.2 | 8.7 | 0.00 | 0.00 | 0.00 | 66 | 1018.9 |
| 20260506200748 | 71 | 268 | 2.6 | 11.3 | 0.00 | 0.00 | 0.00 | 67 | 1019.1 |
| 20260506200247 | 71 | 211 | 3.5 | 11.3 | 0.00 | 0.00 | 0.00 | 67 | 1019.0 |
| 20260506195746 | 71 | 214 | 0.0 | 9.6 | 0.00 | 0.00 | 0.00 | 67 | 1018.9 |
| 20260506195247 | 69 | 198 | 6.1 | 7.8 | 0.00 | 0.00 | 0.00 | 70 | 1019.1 |
| 20260506194746 | 69 | 191 | 3.5 | 9.6 | 0.00 | 0.00 | 0.00 | 70 | 1019.0 |
| 20260506194247 | 69 | 175 | 3.5 | 9.6 | 0.00 | 0.00 | 0.00 | 70 | 1019.2 |
| 20260506193747 | 71 | 219 | 4.3 | 9.6 | 0.00 | 0.00 | 0.00 | 69 | 1019.0 |
| 20260506193246 | 70 | 239 | 1.7 | 12.2 | 0.00 | 0.00 | 0.00 | 70 | 1019.3 |
| 20260506192746 | 70 | 231 | 4.3 | 12.2 | 0.00 | 0.00 | 0.00 | 70 | 1019.3 |
| 20260506192246 | 71 | 218 | 3.5 | 9.6 | 0.00 | 0.00 | 0.00 | 68 | 1019.1 |
| 20260506191747 | 70 | 217 | 3.5 | 7.8 | 0.00 | 0.00 | 0.00 | 70 | 1019.3 |
| 20260506191247 | 70 | 217 | 3.5 | 12.2 | 0.00 | 0.00 | 0.00 | 71 | 1019.3 |
| 20260506190747 | 68 | 215 | 3.5 | 12.2 | 0.00 | 0.00 | 0.00 | 73 | 1019.4 |
| 20260506190246 | 69 | 190 | 5.2 | 8.7 | 0.00 | 0.00 | 0.00 | 72 | 1019.7 |
| 20260506185747 | 69 | 206 | 5.2 | 8.7 | 0.00 | 0.00 | 0.00 | 72 | 1019.5 |
| 20260506185246 | 69 | 242 | 4.3 | 7.8 | 0.00 | 0.00 | 0.00 | 72 | 1019.3 |
| 20260506184746 | 68 | 184 | 2.6 | 7.8 | 0.00 | 0.00 | 0.00 | 72 | 1019.5 |
| 20260506184246 | 69 | 214 | 3.5 | 7.8 | 0.00 | 0.00 | 0.00 | 72 | 1019.9 |
| 20260506183745 | 69 | 214 | 3.5 | 7.8 | 0.00 | 0.00 | 0.00 | 71 | 1019.9 |
| 20260506183245 | 69 | 221 | 1.7 | 7.8 | 0.00 | 0.00 | 0.00 | 72 | 1019.7 |
| 20260506182745 | 68 | 201 | 0.0 | 0.0 | 0.00 | 0.00 | 0.00 | 74 | 1019.8 |
| 20260506182246 | 69 | 203 | 0.0 | 0.0 | 0.00 | 0.00 | 0.00 | 73 | 1019.9 |
| 20260506182017 | 68 | 174 | 0.0 | 0.0 | 0.00 | 0.00 | 0.00 | 74 | 1019.7 |
| 20260506181245 | 68 | 180 | 0.0 | 0.0 | 0.00 | 0.00 | 0.00 | 74 | 1019.6 |
| 20260506180750 | 68 | 211 | 0.0 | 0.0 | 0.00 | 0.00 | 0.00 | 74 | 1019.5 |
| 20260506180745 | 68 | 197 | 0.0 | 0.0 | 0.00 | 0.00 | 0.00 | 74 | 1019.8 |
| 20260506175746 | 67 | 192 | 0.0 | 0.0 | 0.00 | 0.00 | 0.00 | 75 | 1019.9 |
| 20260506175246 | 68 | 208 | 0.0 | 0.0 | 0.00 | 0.00 | 0.00 | 74 | 1019.9 |
| 20260506174745 | 68 | 198 | 0.0 | 0.0 | 0.00 | 0.00 | 0.00 | 74 | 1020.0 |
| 20260506174246 | 67 | 207 | 0.0 | 0.0 | 0.00 | 0.00 | 0.00 | 75 | 1020.0 |
| 20260506173746 | 71 | 182 | 0.0 | 0.0 | 0.00 | 0.00 | 0.00 | 70 | 1019.7 |
| 20260506173245 | 71 | 171 | 0.0 | 0.0 | 0.00 | 0.00 | 0.00 | 67 | 1019.8 |
| 20260506172745 | 68 | 125 | 0.0 | 0.0 | 0.00 | 0.00 | 0.00 | 69 | 1019.8 |
| 20260506172245 | 68 | 146 | 0.0 | 0.0 | 0.00 | 0.00 | 0.00 | 71 | 1019.7 |
| 20260506171746 | 67 | 160 | 0.0 | 0.0 | 0.00 | 0.00 | 0.00 | 72 | 1019.7 |
| 20260506171245 | 67 | 147 | 0.0 | 0.0 | 0.00 | 0.00 | 0.00 | 72 | 1019.9 |
| 20260506170733 | 67 | 183 | 0.0 | 0.0 | 0.00 | 0.00 | 0.00 | 74 | 1019.8 |
| 20260506170234 | 67 | 168 | 0.0 | 0.0 | 0.00 | 0.00 | 0.00 | 73 | 1019.6 |
| 20260506165734 | 69 | 164 | 0.0 | 0.0 | 0.00 | 0.00 | 0.00 | 70 | 1019.6 |
| 20260506165234 | 69 | 171 | 0.0 | 0.0 | 0.00 | 0.00 | 0.00 | 68 | 1019.9 |
| 20260506164733 | 67 | 169 | 0.0 | 0.0 | 0.00 | 0.00 | 0.00 | 73 | 1019.7 |
| 20260506164233 | 68 | 171 | 0.0 | 0.0 | 0.00 | 0.00 | 0.00 | 70 | 1019.9 |
| 20260506164003 | 67 | 158 | 0.0 | 0.0 | 0.00 | 0.00 | 0.00 | 72 | 1019.7 |
| 20260506163235 | 65 | 158 | 0.0 | 0.0 | 0.00 | 0.00 | 0.00 | 71 | 1019.9 |
| 20260506162734 | 67 | 176 | 0.0 | 0.0 | 0.00 | 0.00 | 0.00 | 73 | 1019.7 |
| 20260506162234 | 67 | 165 | 0.0 | 0.0 | 0.00 | 0.00 | 0.00 | 73 | 1019.9 |
| 20260506161733 | 65 | 155 | 0.0 | 0.0 | 0.00 | 0.00 | 0.00 | 77 | 1019.8 |
| 20260506161233 | 66 | 158 | 0.0 | 0.0 | 0.00 | 0.00 | 0.00 | 77 | 1019.7 |
| 20260506160733 | 65 | 163 | 0.0 | 0.0 | 0.00 | 0.00 | 0.00 | 77 | 1020.0 |
| 20260506160234 | 64 | 163 | 0.0 | 0.0 | 0.00 | 0.00 | 0.00 | 78 | 1020.0 |
| 20260506155733 | 65 | 153 | 0.0 | 0.0 | 0.00 | 0.00 | 0.00 | 79 | 1019.8 |
| 20260506155451 | 64 | 149 | 0.0 | 0.0 | 0.00 | 0.00 | 0.00 | 80 | 1020.1 |
| 20260506154722 | 64 | 150 | 0.0 | 0.0 | 0.00 | 0.00 | 0.00 | 82 | 1019.9 |
| 20260506154222 | 64 | 139 | 0.0 | 0.0 | 0.00 | 0.00 | 0.00 | 81 | 1019.8 |
| 20260506153709 | 64 | 153 | 0.0 | 0.0 | 0.00 | 0.00 | 0.00 | 81 | 1020.0 |
| 20260506153209 | 64 | 159 | 0.0 | 0.0 | 0.00 | 0.00 | 0.00 | 81 | 1020.1 |
| 20260506152710 | 64 | 149 | 0.0 | 0.0 | 0.00 | 0.00 | 0.00 | 82 | 1020.2 |
| 20260506152157 | 64 | 149 | 0.0 | 0.0 | 0.00 | 0.00 | 0.00 | 81 | 1020.0 |
| 20260506151657 | 63 | 151 | 0.0 | 0.0 | 0.00 | 0.00 | 0.00 | 83 | 1020.2 |
| 20260506151158 | 62 | 151 | 0.0 | 0.0 | 0.00 | 0.00 | 0.00 | 83 | 1020.1 |
| 20260506150645 | 62 | 131 | 0.0 | 0.0 | 0.00 | 0.00 | 0.00 | 84 | 1020.1 |
| 20260506150146 | 62 | 145 | 0.0 | 0.0 | 0.00 | 0.00 | 0.00 | 84 | 1020.1 |
| 20260506145646 | 61 | 147 | 0.0 | 0.0 | 0.00 | 0.00 | 0.00 | 84 | 1020.1 |
| 20260506145146 | 61 | 136 | 0.0 | 0.0 | 0.00 | 0.00 | 0.00 | 85 | 1020.1 |
| 20260506144645 | 60 | 149 | 0.0 | 0.0 | 0.00 | 0.00 | 0.00 | 85 | 1020.0 |
| 20260506144145 | 60 | 143 | 0.0 | 0.0 | 0.00 | 0.00 | 0.00 | 85 | 1019.9 |
| 20260506143645 | 60 | 147 | 0.0 | 0.0 | 0.00 | 0.00 | 0.00 | 86 | 1019.9 |
| 20260506143145 | 60 | 144 | 0.0 | 0.0 | 0.00 | 0.00 | 0.00 | 86 | 1019.9 |
| 20260506142645 | 59 | 136 | 0.0 | 0.0 | 0.00 | 0.00 | 0.00 | 86 | 1019.9 |
| 20260506142146 | 59 | 129 | 0.0 | 0.0 | 0.00 | 0.00 | 0.00 | 87 | 1019.9 |
| 20260506141645 | 59 | 143 | 0.0 | 0.0 | 0.00 | 0.00 | 0.00 | 88 | 1019.9 |
| 20260506141145 | 59 | 144 | 0.0 | 0.0 | 0.00 | 0.00 | 0.00 | 88 | 1019.6 |
| 20260506140646 | 58 | 140 | 0.0 | 0.0 | 0.00 | 0.00 | 0.00 | 89 | 1019.7 |
| 20260506140147 | 58 | 144 | 0.0 | 0.0 | 0.00 | 0.00 | 0.00 | 90 | 1019.6 |
| 20260506135917 | 57 | 146 | 0.0 | 0.0 | 0.00 | 0.00 | 0.00 | 92 | 1019.9 |
| 20260506135749 | 56 | 147 | 0.0 | 0.0 | 0.00 | 0.00 | 0.00 | 95 | 1019.6 |
| 20260506134645 | 56 | 151 | 0.0 | 0.0 | 0.00 | 0.00 | 0.00 | 97 | 1019.7 |
| 20260506134145 | 56 | 150 | 0.0 | 0.0 | 0.00 | 0.00 | 0.00 | 99 | 1019.6 |
| 20260506133645 | 55 | 150 | 0.0 | 0.0 | 0.00 | 0.00 | 0.00 | 99 | 1019.7 |
| 20260506133416 | 54 | 151 | 0.0 | 0.0 | 0.00 | 0.00 | 0.00 | 99 | 1019.7 |
| 20260506132646 | 54 | 151 | 0.0 | 0.0 | 0.00 | 0.00 | 0.00 | 99 | 1019.4 |
| 20260506132145 | 54 | 151 | 0.0 | 0.0 | 0.00 | 0.00 | 0.00 | 99 | 1019.3 |
| 20260506131645 | 53 | 151 | 0.0 | 0.0 | 0.00 | 0.00 | 0.00 | 99 | 1019.4 |
| 20260506131145 | 53 | 151 | 0.0 | 0.0 | 0.00 | 0.00 | 0.00 | 99 | 1019.5 |
| 20260506130646 | 53 | 151 | 0.0 | 0.0 | 0.00 | 0.00 | 0.00 | 99 | 1019.2 |
| 20260506130146 | 53 | 151 | 0.0 | 0.0 | 0.00 | 0.00 | 0.00 | 99 | 1019.3 |
| 20260506125646 | 53 | 151 | 0.0 | 0.0 | 0.00 | 0.00 | 0.00 | 99 | 1019.2 |
| 20260506125133 | 53 | 151 | 0.0 | 0.0 | 0.00 | 0.00 | 0.00 | 99 | 1019.2 |
| 20260506124634 | 53 | 151 | 0.0 | 0.0 | 0.00 | 0.00 | 0.00 | 99 | 1019.2 |
| 20260506124405 | 53 | 151 | 0.0 | 0.0 | 0.00 | 0.00 | 0.00 | 99 | 1019.0 |
| 20260506123603 | 54 | 151 | 0.0 | 0.0 | 0.00 | 0.00 | 0.00 | 99 | 1019.0 |
| 20260506123045 | 53 | 152 | 0.0 | 0.0 | 0.00 | 0.00 | 0.00 | 99 | 1018.8 |
| 20260506122815 | 54 | 152 | 0.0 | 0.0 | 0.00 | 0.00 | 0.00 | 99 | 1019.0 |
| 20260506122317 | 54 | 152 | 0.0 | 0.0 | 0.00 | 0.00 | 0.00 | 99 | 1018.8 |
| 20260506121537 | 54 | 151 | 0.0 | 0.0 | 0.00 | 0.00 | 0.00 | 99 | 1019.0 |
| 20260506121533 | 54 | 151 | 0.0 | 0.0 | 0.00 | 0.00 | 0.00 | 99 | 1018.9 |
| 20260506120535 | 54 | 151 | 0.0 | 0.0 | 0.00 | 0.00 | 0.00 | 99 | 1019.1 |
| 20260506120305 | 54 | 151 | 0.0 | 0.0 | 0.00 | 0.00 | 0.00 | 99 | 1019.1 |
| 20260506115516 | 55 | 151 | 0.0 | 0.0 | 0.00 | 0.00 | 0.00 | 99 | 1018.8 |
| 20260506114945 | 55 | 151 | 0.0 | 0.0 | 0.00 | 0.00 | 0.00 | 99 | 1018.9 |
| 20260506114715 | 55 | 151 | 0.0 | 0.0 | 0.00 | 0.00 | 0.00 | 99 | 1018.8 |
| 20260506113946 | 55 | 151 | 0.0 | 0.0 | 0.00 | 0.00 | 0.00 | 99 | 1018.7 |
| 20260506113446 | 55 | 151 | 0.0 | 0.0 | 0.00 | 0.00 | 0.00 | 99 | 1018.6 |
| 20260506112946 | 55 | 151 | 0.0 | 0.0 | 0.00 | 0.00 | 0.00 | 99 | 1018.8 |
| 20260506112445 | 55 | 152 | 0.0 | 0.0 | 0.00 | 0.00 | 0.00 | 99 | 1018.7 |
| 20260506111945 | 55 | 151 | 0.0 | 0.0 | 0.00 | 0.00 | 0.00 | 99 | 1018.6 |
| 20260506111433 | 55 | 152 | 0.0 | 0.0 | 0.00 | 0.00 | 0.00 | 99 | 1018.6 |
| 20260506111203 | 55 | 152 | 0.0 | 0.0 | 0.00 | 0.00 | 0.00 | 99 | 1018.5 |
| 20260506110434 | 55 | 152 | 0.0 | 0.0 | 0.00 | 0.00 | 0.00 | 99 | 1018.5 |
| 20260506105938 | 55 | 152 | 0.0 | 0.0 | 0.00 | 0.00 | 0.00 | 99 | 1018.6 |
| 20260506105934 | 55 | 152 | 0.0 | 0.0 | 0.00 | 0.00 | 0.00 | 99 | 1018.8 |
| 20260506104933 | 55 | 158 | 0.0 | 0.0 | 0.00 | 0.00 | 0.00 | 99 | 1018.7 |
| 20260506104704 | 55 | 169 | 0.0 | 0.0 | 0.00 | 0.00 | 0.00 | 99 | 1018.8 |
| 20260506103934 | 55 | 169 | 0.0 | 0.0 | 0.00 | 0.00 | 0.00 | 99 | 1018.6 |
| 20260506103427 | 55 | 169 | 0.0 | 0.0 | 0.00 | 0.00 | 0.00 | 99 | 1018.7 |
| 20260506102909 | 56 | 169 | 0.0 | 0.0 | 0.00 | 0.00 | 0.00 | 99 | 1018.6 |
| 20260506102409 | 56 | 169 | 0.0 | 0.0 | 0.00 | 0.00 | 0.00 | 99 | 1018.4 |
| 20260506101909 | 56 | 169 | 0.0 | 0.0 | 0.00 | 0.00 | 0.00 | 99 | 1018.5 |
| 20260506101345 | 56 | 169 | 0.0 | 0.0 | 0.00 | 0.00 | 0.00 | 99 | 1018.7 |
| 20260506100845 | 56 | 169 | 0.0 | 0.0 | 0.00 | 0.00 | 0.00 | 98 | 1018.7 |
| 20260506100345 | 56 | 169 | 0.0 | 0.0 | 0.00 | 0.00 | 0.00 | 98 | 1018.7 |
| 20260506095849 | 56 | 169 | 0.0 | 0.0 | 0.00 | 0.00 | 0.00 | 98 | 1018.6 |
| 20260506095845 | 56 | 169 | 0.0 | 0.0 | 0.00 | 0.00 | 0.00 | 98 | 1018.5 |
| 20260506094845 | 56 | 169 | 0.0 | 0.0 | 0.00 | 0.00 | 0.00 | 98 | 1018.5 |
| 20260506094345 | 56 | 169 | 0.0 | 0.0 | 0.00 | 0.00 | 0.00 | 98 | 1018.6 |
| 20260506093845 | 56 | 171 | 0.0 | 0.0 | 0.00 | 0.00 | 0.00 | 98 | 1018.8 |
| 20260506093345 | 56 | 171 | 0.0 | 0.0 | 0.00 | 0.00 | 0.00 | 98 | 1018.9 |
| 20260506092845 | 56 | 171 | 0.0 | 0.0 | 0.00 | 0.00 | 0.00 | 98 | 1018.7 |
| 20260506092345 | 56 | 171 | 0.0 | 0.0 | 0.00 | 0.00 | 0.00 | 98 | 1018.8 |
| 20260506091845 | 56 | 171 | 0.0 | 0.0 | 0.00 | 0.00 | 0.00 | 98 | 1018.6 |
| 20260506091345 | 56 | 171 | 0.0 | 0.0 | 0.00 | 0.00 | 0.00 | 98 | 1018.8 |
| 20260506090845 | 56 | 171 | 0.0 | 0.0 | 0.00 | 0.00 | 0.00 | 98 | 1018.7 |
| 20260506090345 | 56 | 171 | 0.0 | 0.0 | 0.00 | 0.00 | 0.00 | 98 | 1018.7 |
| 20260506085846 | 56 | 171 | 0.0 | 0.0 | 0.00 | 0.00 | 0.00 | 97 | 1018.7 |
| 20260506085345 | 56 | 171 | 0.0 | 0.0 | 0.00 | 0.00 | 0.00 | 97 | 1018.7 |
| 20260506084845 | 56 | 171 | 0.0 | 0.0 | 0.00 | 0.00 | 0.00 | 97 | 1018.9 |
| 20260506084346 | 56 | 171 | 0.0 | 0.0 | 0.00 | 0.00 | 0.00 | 97 | 1018.9 |
| 20260506084117 | 56 | 171 | 0.0 | 0.0 | 0.00 | 0.00 | 0.00 | 97 | 1019.0 |
| 20260506083345 | 56 | 171 | 0.0 | 0.0 | 0.00 | 0.00 | 0.00 | 97 | 1018.8 |
| 20260506082845 | 56 | 171 | 0.0 | 0.0 | 0.00 | 0.00 | 0.00 | 97 | 1018.9 |
| 20260506082345 | 56 | 171 | 0.0 | 0.0 | 0.00 | 0.00 | 0.00 | 96 | 1019.0 |
| 20260506081845 | 56 | 171 | 0.0 | 0.0 | 0.00 | 0.00 | 0.00 | 96 | 1018.9 |
| 20260506081345 | 57 | 171 | 0.0 | 0.0 | 0.00 | 0.00 | 0.00 | 96 | 1019.0 |
| 20260506080845 | 57 | 171 | 0.0 | 0.0 | 0.00 | 0.00 | 0.00 | 96 | 1019.1 |
| 20260506080345 | 56 | 171 | 0.0 | 0.0 | 0.00 | 0.00 | 0.00 | 96 | 1019.0 |
| 20260506073346 | 57 | 171 | 0.0 | 0.0 | 0.00 | 0.00 | 0.00 | 95 | 1019.1 |
| 20260506073117 | 57 | 171 | 0.0 | 0.0 | 0.00 | 0.00 | 0.00 | 95 | 1019.1 |
| 20260506072346 | 57 | 171 | 0.0 | 0.0 | 0.00 | 0.00 | 0.00 | 94 | 1019.1 |
| 20260506071845 | 57 | 172 | 0.0 | 0.0 | 0.00 | 0.00 | 0.00 | 94 | 1019.0 |
| 20260506071345 | 57 | 175 | 0.0 | 0.0 | 0.00 | 0.00 | 0.00 | 94 | 1019.1 |
| 20260506070845 | 57 | 179 | 0.0 | 0.0 | 0.00 | 0.00 | 0.00 | 93 | 1019.1 |
| 20260506070345 | 58 | 219 | 0.0 | 0.0 | 0.00 | 0.00 | 0.00 | 93 | 1018.7 |
| 20260506070108 | 58 | 222 | 0.0 | 0.0 | 0.00 | 0.00 | 0.00 | 93 | 1019.0 |
| 20260506062336 | 58 | 221 | 0.0 | 0.0 | 0.00 | 0.00 | 0.00 | 91 | 1018.7 |
| 20260506061836 | 58 | 221 | 0.0 | 0.0 | 0.00 | 0.00 | 0.00 | 91 | 1018.6 |
| 20260506061336 | 58 | 221 | 0.0 | 0.0 | 0.00 | 0.00 | 0.00 | 91 | 1018.5 |